Regional Weather Roundup
Issued by NWS Cleveland, OH

Home | Current Version | Previous Version | Text Only | Print | Product List | Glossary On
Versions: 1 2 3 4 5 6 7 8 9 10 11 12 13 14 15 16 17 18 19 20 21 22 23 24 25 26 27 28 29 30 31 32 33 34 35 36 37 38 39 40 41 42 43 44 45 46 47 48 49 50
000
ASUS41 KCLE 310210
RWRCLE
OHIO REGIONAL WEATHER ROUNDUP
NATIONAL WEATHER SERVICE WILMINGTON, OH
1000 PM EDT MON MAR 30 2015

NOTE: "FAIR" INDICATES FEW OR NO CLOUDS BELOW 12,000 FEET WITH NO
SIGNIFICANT WEATHER AND/OR OBSTRUCTIONS TO VISIBILITY.

OHZ001>008-015>018-024>027-034-035-043-044-310300-
   NORTHWEST OHIO

CITY           SKY/WX    TMP DP  RH WIND       PRES   REMARKS
DEFIANCE       LGT RAIN  52  36  54 NW15G24   30.00R
FINDLAY        CLOUDY    49  30  48 W6        29.98R
TOLEDO EXPRESS CLOUDY    49  27  42 W7        29.97R
TOLEDO EXEC    CLOUDY    48  27  44 W6        29.98R
LIMA           CLOUDY    51  33  50 SW7       29.99R
$$

OHZ009>014-019>023-028>033-038-089-310300-
   NORTHEAST OHIO

CITY           SKY/WX    TMP DP  RH WIND       PRES   REMARKS
CLE-HOPKINS    MOCLDY    45  25  45 NW13      29.98R
CLE-LAKEFRONT  PTCLDY    36  29  75 NE8       29.96R
CUY CO. ARPT   PTCLDY    37  30  75 NE6       29.97R
LORAIN-ELYRIA  MOCLDY    44  27  51 W9        29.96R
ASHTABULA      CLEAR     36  28  73 N3        29.96R
AKRON-CANTON   PTCLDY    45  24  43 W8        29.95R
WOOSTER        MOCLDY    40  30  67 W7        29.97R
MANSFIELD      CLOUDY    46  28  49 W5        29.97R
YOUNGSTOWN     PTCLDY    44  22  41 NW12      29.92R
$$

OHZ042-051>053-060>062-070>072-077>081-310300-
  SOUTHWEST OHIO

CITY           SKY/WX    TMP DP  RH WIND       PRES   REMARKS
CINC-COVINGTON CLOUDY    42  34  73 S6        30.05R
CINC-LUNKEN    PTCLDY    47  33  58 CALM      30.06R
HAMILTON       PTCLDY    45  34  65 CALM      30.05R
DAYTON         MOCLDY    50  32  50 S8        30.02R
WRIGHT-PAT AFB MOCLDY    46  30  55 S5        30.02R
DAYTON GENERAL MOCLDY    51  31  46 S5        30.02R
WILMINGTON     MOCLDY    45  32  60 SW7       30.04R
$$

OHZ036-037-039>041-045>050-054>059-063>069-073>076-082>088-310300-
  CENTRAL AND SOUTHEAST OHIO

CITY           SKY/WX    TMP DP  RH WIND       PRES   REMARKS
COLUMBUS       CLOUDY    49  31  49 SW7       30.00S
OSU AIRPORT    CLOUDY    48  30  49 SW8       30.00R
BOLTON FIELD   CLOUDY   N/A N/A N/A SW7       30.01S
RICKENBACK AFB CLOUDY    46  32  59 SW7       30.01S
NEWARK         MOCLDY    45  30  55 SW5       29.99S
MARION         CLOUDY    49  28  44 W8        29.99R
LANCASTER      CLOUDY    49  31  49 SW6       30.02R
ZANESVILLE     MOCLDY    47  26  44 SW7       30.00R
NEW PHILLY     MOCLDY    49  26  41 VRB5      29.98R
$$


USA.gov is the U.S. government's official web portal to all federal, state and local government web resources and services.